Regional Weather Roundup
Issued by NWS

Home | Current Version | Previous Version | Graphics & Text | Print | Product List | Glossary On
Versions: 1 2 3 4 5 6 7 8 9 10 11 12 13 14 15 16 17 18 19 20 21 22 23 24 25 26 27 28 29 30 31 32 33 34 35 36 37 38 39 40 41 42 43 44 45 46 47 48 49 50
000
ASUS43 KLOT 250508
RWRIL

ILLINOIS REGIONAL WEATHER ROUNDUP
NATIONAL WEATHER SERVICE CHICAGO/ROMEOVILLE IL
1100 PM CST FRI NOV 24 2017

NOTE: "FAIR" INDICATES FEW OR NO CLOUDS BELOW 12,000 FEET WITH NO
SIGNIFICANT WEATHER AND/OR OBSTRUCTIONS TO VISIBILITY.

* THESE STATIONS ARE NOT UNDER NWS QUALITY CONTROL. THEY ALSO MAY NOT
  REPORT WEATHER SUCH AS PRECIPITATION OR FOG.

ILZ001-002-007-009-015-016-024-250600-
NORTHWEST ILLINOIS

CITY           SKY/WX    TMP DP  RH WIND       PRES   REMARKS
MOLINE         CLEAR     52  41  66 NW23G30   29.71R
STERLING*        N/A     51  43  74 W13       29.65
SAVANNA*       PTCLDY    52  43  72 NW13G18   29.66R
$$

ILZ003-004-008-010-011-017-018-250600-
NORTH CENTRAL ILLINOIS

CITY           SKY/WX    TMP DP  RH WIND       PRES   REMARKS
ROCKFORD       CLOUDY    54  42  64 NW17G23   29.64R
FREEPORT*      MOCLDY    52  43  71 NW13G23   29.65R
ROCHELLE*      CLOUDY    52  43  70 NW14      29.64R
DE KALB*       CLOUDY    51  42  71 W13       29.62R
PERU*          CLOUDY    52  41  66 W14       29.64R
$$

ILZ005-006-012>014-019>023-250600-
NORTHEAST ILLINOIS

CITY           SKY/WX    TMP DP  RH WIND       PRES   REMARKS
CHICAGO-OHARE  MOCLDY    53  40  61 W10       29.57R
CHICAGO-MIDWAY PTCLDY    50  41  71 W6        29.58R
AURORA         CLOUDY    51  43  74 W15       29.60R
LANSING*       CLOUDY    48  40  75 SW7       29.58R
JOLIET*        PTCLDY    51  42  71 W7        29.60R
WAUKEGAN       PTCLDY    54  42  64 NW9G17    29.55R
DUPAGE AIRPORT CLOUDY    53  43  68 NW15      29.58R
KANKAKEE*      CLOUDY    47  38  69 SW14      29.62R
WHEELING       PTCLDY    56  42  59 NW10      29.58R
MORRIS*        CLOUDY    49  42  77 W15       29.60R
ROMEOVILLE*    MOCLDY    47  41  77 W9        29.59R
NORTHERLY ISL    N/A     52  38  58 SW8         N/A
$$

LMZ740>746-250600-
SOUTHERN LAKE MICHIGAN

STATION/POSITION SKY/WX   TEMP    WIND        PRES    VSBY  WAVE
                          AIR SEA DIR/SP/G                  HT/PER
                          (F)     (DEG/KT/KT) (MB)    (MI)  (FT/S)
SOUTHERN BUOY              50 47  270/ 12/ 14  999.6R         4/ 6
HARRISON CRIB              56     260/ 13/ 14   N/A
BURNHAM HARBOR             52     200/  5/ 10   N/A
CALUMET HARBOR             51     220/  5/  8 1000.8R
BURNS HARBOR               52     190/ 15/ 22 1001.0S
MICHIGAN CITY              53     200/ 21/ 25   N/A
$$

ILZ025>027-034>036-040-047-049-050-058-095>099-250600-
WEST-CENTRAL ILLINOIS

CITY           SKY/WX    TMP DP  RH WIND       PRES   REMARKS
QUINCY         CLEAR     54  41  61 NW13      29.76R
GALESBURG*     CLEAR     50  43  76 W12       29.73R
MACOMB*        CLEAR     53  42  67 NW16G23   29.75R
JACKSONVILLE*  MOCLDY    52  39  61 MISG      29.71R
PITTSFIELD*    PTCLDY    58  42  56 W12G23    29.76R
$$

ILZ028>032-037-038-041>044-048-051>054-059>061-250600-
CENTRAL ILLINOIS

CITY           SKY/WX    TMP DP  RH WIND       PRES   REMARKS
PONTIAC        CLOUDY    52  44  74 W15       29.64R
BLOOMINGTON    CLOUDY    50  40  68 W9        29.67R
DECATUR        PTCLDY    52  38  58 SW10      29.69R
PEORIA         CLEAR     56  42  59 NW10G20   29.69R
LACON*         CLEAR     53  42  65 W12       29.66R
LINCOLN*       CLOUDY    55  42  60 W5        29.68R
SPRINGFIELD    PTCLDY    50  39  66 W8        29.70R
TAYLORVILLE    MOCLDY    51  38  60 SW8       29.71R
$$

ILZ033-039-045-046-055>057-062-063-250600-
EAST-CENTRAL ILLINOIS

CITY           SKY/WX    TMP DP  RH WIND       PRES   REMARKS
CHAMPAIGN      CLOUDY    50  38  63 SW16      29.67R
DANVILLE*      PTCLDY    50  37  61 SW14G20   29.63R
RANTOUL*       CLOUDY    50  40  68 SW13      29.65R
MATTOON        PTCLDY    51  38  60 SW10      29.69R
PARIS*         PTCLDY    51  37  60 SW18      29.70R
$$

ILZ079-100>102-250600-
SOUTHWEST ILLINOIS

CITY           SKY/WX    TMP DP  RH WIND       PRES   REMARKS
ALTON          PTCLDY    54  39  57 SW6       29.72R
BELLEVILLE     CLOUDY    55  37  51 SW6       29.71R
CAHOKIA*       CLOUDY    59  35  40 SW7       29.72R
SPARTA*        CLOUDY    55  36  49 S8        29.76R
$$

ILZ064>066-069>071-074>076-080>082-084>086-088>090-092>094-250600-
SOUTH-CENTRAL ILLINOIS

CITY           SKY/WX    TMP DP  RH WIND       PRES   REMARKS
CARBONDALE     MOCLDY    55  36  48 SW17      29.77R
CAIRO*         CLOUDY    53  35  50 S9        29.83S
EFFINGHAM*     PTCLDY    53  39  57 S12       29.73R
MARION         CLOUDY    58  34  41 SW13G18   29.79R
MT. VERNON     CLOUDY    54  37  52 SW14      29.75R
CENTRALIA*     CLOUDY    56  39  52 SW16G24   29.72R
SALEM*         CLOUDY    56  37  47 SW15G22   29.72R
METROPOLIS*    CLOUDY    53  34  48 SW8       29.84R
$$

ILZ067-068-072-073-078-083-087-091-250600-
SOUTHEAST ILLINOIS

CITY           SKY/WX    TMP DP  RH WIND       PRES   REMARKS
LAWRENCEVILLE  CLOUDY    53  35  50 MISG      29.73F
FLORA*         CLOUDY    55  37  50 SW14G20   29.72S
FAIRFIELD*     PTCLDY    54  36  51 S3        29.74R
HARRISBURG*    CLOUDY    55  36  49 SW12      29.79R
ROBINSON*      CLOUDY    53  35  51 SW15G22   29.72R
CARMI*         CLOUDY    55  35  45 SW18      29.76S
$$

ABBREVIATIONS USED IN REMARKS
   TC - TEMPERATURE IN CELSIUS
  WCI - WIND CHILL INDEX
   HX - HEAT INDEX
  VSB - VISIBILITY
$$





USA.gov is the U.S. government's official web portal to all federal, state and local government web resources and services.